When you browse on this site, cookies collect data to enhance your experience and personalize the content and advertising you see.
Visit our Privacy Policy to learn more. By continuing to use the site, you agree to this use of cookies and data.
  • In Czech Republic
  • List of Countries
  • For 7 days
  • Water Temperature
  • Satellite Maps
  • Weather Map
  • Weather Widgets
  • user-avatar
    Login

    Hourly Weather Fredericton

    Today, 18 April, Thursday

    Time Temperature Precipitation Wind Pressure Humidity
    00:00 +2°C° 0 mm 1 mps 765 mmHg 93%
    01:00 0°C° 0 mm 0 mps 765 mmHg 93%
    02:00 -1°C° 0 mm 0 mps 766 mmHg 94%
    03:00 -1°C° 0 mm 0 mps 766 mmHg 94%
    04:00 -2°C° 0 mm 0 mps 766 mmHg 94%
    05:00 -2°C° 0 mm 0 mps 766 mmHg 94%
    06:00 0°C° 0 mm 0 mps 767 mmHg 89%
    07:00 +3°C° 0 mm 1 mps 767 mmHg 83%
    08:00 +6°C° 0 mm 1 mps 767 mmHg 76%
    09:00 +7°C° 0 mm 1 mps 766 mmHg 70%
    10:00 +8°C° 0 mm 2 mps 766 mmHg 64%
    11:00 +9°C° 0 mm 2 mps 766 mmHg 58%
    12:00 +10°C° 0 mm 3 mps 765 mmHg 57%
    13:00 +11°C° 0 mm 3 mps 765 mmHg 56%
    14:00 +11°C° 0 mm 4 mps 765 mmHg 55%
    15:00 +10°C° 0 mm 4 mps 764 mmHg 57%
    16:00 +8°C° 0 mm 4 mps 764 mmHg 60%
    17:00 +7°C° 0 mm 4 mps 764 mmHg 63%
    18:00 +6°C° 0.4 mm 4 mps 763 mmHg 68%
    19:00 +5°C° 0.4 mm 3 mps 763 mmHg 73%
    20:00 +4°C° 0.4 mm 2 mps 763 mmHg 78%
    21:00 +3°C° 1 mm 3 mps 762 mmHg 80%
    22:00 +3°C° 1 mm 4 mps 761 mmHg 82%
    23:00 +2°C° 1 mm 5 mps 760 mmHg 84%

    Tomorrow, 19 April, Friday

    Time Temperature Precipitation Wind Pressure Humidity
    00:00 +3°C° 3.3 mm 6 mps 759 mmHg 87%
    01:00 +4°C° 3.3 mm 6 mps 757 mmHg 89%
    02:00 +5°C° 3.3 mm 7 mps 756 mmHg 91%
    03:00 +6°C° 1.5 mm 7 mps 755 mmHg 91%
    04:00 +9°C° 1.5 mm 7 mps 754 mmHg 91%
    05:00 +10°C° 1.5 mm 7 mps 753 mmHg 92%
    06:00 +11°C° 0.2 mm 6 mps 753 mmHg 92%
    07:00 +11°C° 0.2 mm 6 mps 752 mmHg 92%
    08:00 +13°C° 0.2 mm 6 mps 752 mmHg 92%
    09:00 +13°C° 0 mm 6 mps 752 mmHg 91%
    10:00 +14°C° 0 mm 6 mps 752 mmHg 89%
    11:00 +15°C° 0 mm 6 mps 752 mmHg 88%
    12:00 +16°C° 0 mm 6 mps 752 mmHg 86%
    13:00 +16°C° 0 mm 5 mps 752 mmHg 84%
    14:00 +17°C° 0 mm 5 mps 752 mmHg 83%
    15:00 +17°C° 0 mm 5 mps 752 mmHg 82%
    16:00 +17°C° 0 mm 5 mps 753 mmHg 81%
    17:00 +19°C° 0 mm 5 mps 753 mmHg 80%
    18:00 +17°C° 0 mm 5 mps 753 mmHg 81%
    19:00 +16°C° 0 mm 5 mps 754 mmHg 83%
    20:00 +15°C° 0 mm 5 mps 754 mmHg 85%
    21:00 +15°C° 0 mm 5 mps 755 mmHg 87%
    22:00 +15°C° 0 mm 4 mps 755 mmHg 89%
    23:00 +15°C° 0 mm 4 mps 755 mmHg 91%

    Day after tomorrow, 20 April, Saturday

    Time Temperature Precipitation Wind Pressure Humidity
    00:00 +15°C° 1.1 mm 4 mps 755 mmHg 92%
    01:00 +15°C° 1.1 mm 4 mps 755 mmHg 93%
    02:00 +17°C° 1.1 mm 4 mps 755 mmHg 93%
    03:00 +15°C° 1.2 mm 4 mps 755 mmHg 93%
    04:00 +15°C° 1.2 mm 4 mps 755 mmHg 94%
    05:00 +16°C° 1.2 mm 3 mps 755 mmHg 94%
    06:00 +15°C° 0.7 mm 4 mps 756 mmHg 93%
    07:00 +17°C° 0.7 mm 4 mps 757 mmHg 93%
    08:00 +17°C° 0.7 mm 4 mps 757 mmHg 92%
    09:00 +18°C° 1.1 mm 4 mps 758 mmHg 91%
    10:00 +18°C° 1.1 mm 4 mps 758 mmHg 90%
    11:00 +17°C° 1.1 mm 5 mps 759 mmHg 89%
    12:00 +18°C° 0.1 mm 4 mps 759 mmHg 89%
    13:00 +19°C° 0.1 mm 4 mps 760 mmHg 88%
    14:00 +19°C° 0.1 mm 4 mps 760 mmHg 87%
    15:00 +18°C° 0.1 mm 3 mps 760 mmHg 89%
    16:00 +18°C° 0.1 mm 3 mps 760 mmHg 91%
    17:00 +17°C° 0.1 mm 3 mps 761 mmHg 93%
    18:00 +17°C° 0.2 mm 3 mps 761 mmHg 93%
    19:00 +17°C° 0.2 mm 3 mps 761 mmHg 93%
    20:00 +16°C° 0.2 mm 3 mps 762 mmHg 94%
    21:00 +16°C° 0 mm 3 mps 762 mmHg 93%
    22:00 +17°C° 0 mm 4 mps 762 mmHg 93%
    23:00 +17°C° 0 mm 4 mps 762 mmHg 93%

    21 April, Sunday

    Time Temperature Precipitation Wind Pressure Humidity
    00:00 +15°C° 0.2 mm 4 mps 762 mmHg 93%
    01:00 +15°C° 0.2 mm 4 mps 762 mmHg 93%
    02:00 +15°C° 0.2 mm 4 mps 762 mmHg 93%
    03:00 +15°C° 0.1 mm 4 mps 762 mmHg 93%
    04:00 +15°C° 0.1 mm 4 mps 762 mmHg 93%
    05:00 +14°C° 0.1 mm 4 mps 762 mmHg 93%
    06:00 +15°C° 0.1 mm 4 mps 762 mmHg 92%
    07:00 +15°C° 0.1 mm 4 mps 762 mmHg 92%
    08:00 +15°C° 0.1 mm 5 mps 762 mmHg 91%
    09:00 +15°C° 0.2 mm 5 mps 762 mmHg 91%
    10:00 +15°C° 0.2 mm 5 mps 762 mmHg 91%
    11:00 +15°C° 0.2 mm 5 mps 762 mmHg 91%
    12:00 +15°C° 0.1 mm 5 mps 762 mmHg 91%
    13:00 +15°C° 0.1 mm 5 mps 762 mmHg 90%
    14:00 +15°C° 0.1 mm 5 mps 762 mmHg 89%
    15:00 +15°C° 0.1 mm 5 mps 762 mmHg 89%
    16:00 +15°C° 0.1 mm 5 mps 762 mmHg 89%
    17:00 +16°C° 0.1 mm 5 mps 762 mmHg 89%
    18:00 +15°C° 0.1 mm 5 mps 762 mmHg 90%
    19:00 +15°C° 0.1 mm 4 mps 762 mmHg 91%
    20:00 +14°C° 0.1 mm 4 mps 762 mmHg 92%
    21:00 +14°C° 0.2 mm 4 mps 762 mmHg 93%
    22:00 +14°C° 0.2 mm 3 mps 763 mmHg 94%
    23:00 +13°C° 0.2 mm 3 mps 763 mmHg 94%

    22 April, Monday

    Time Temperature Precipitation Wind Pressure Humidity
    00:00 +13°C° 0.5 mm 3 mps 763 mmHg 95%
    01:00 +13°C° 0.5 mm 2 mps 762 mmHg 96%
    02:00 +13°C° 0.5 mm 2 mps 762 mmHg 97%
    03:00 +12°C° 0 mm 1 mps 762 mmHg 97%
    04:00 +11°C° 0 mm 1 mps 763 mmHg 98%
    05:00 +10°C° 0 mm 1 mps 763 mmHg 98%
    06:00 +11°C° 0 mm 1 mps 763 mmHg 95%
    07:00 +12°C° 0 mm 1 mps 764 mmHg 93%
    08:00 +13°C° 0 mm 2 mps 764 mmHg 90%
    09:00 +15°C° 0 mm 2 mps 764 mmHg 82%
    10:00 +17°C° 0 mm 2 mps 764 mmHg 73%
    11:00 +19°C° 0 mm 2 mps 764 mmHg 64%
    12:00 +20°C° 0 mm 2 mps 763 mmHg 60%
    13:00 +21°C° 0 mm 2 mps 763 mmHg 57%
    14:00 +23°C° 0 mm 2 mps 762 mmHg 53%
    15:00 +21°C° 0 mm 2 mps 762 mmHg 57%
    16:00 +20°C° 0 mm 2 mps 762 mmHg 61%
    17:00 +19°C° 0 mm 2 mps 762 mmHg 65%
    18:00 +17°C° 0.2 mm 2 mps 762 mmHg 73%
    19:00 +16°C° 0.2 mm 2 mps 762 mmHg 81%
    20:00 +14°C° 0.2 mm 2 mps 762 mmHg 89%
    21:00 +14°C° 0.4 mm 1 mps 761 mmHg 91%
    22:00 +14°C° 0.4 mm 1 mps 761 mmHg 94%
    23:00 +14°C° 0.4 mm 1 mps 761 mmHg 97%

    23 April, Tuesday

    Time Temperature Precipitation Wind Pressure Humidity
    00:00 +14°C° 0.3 mm 1 mps 760 mmHg 97%
    01:00 +14°C° 0.3 mm 1 mps 760 mmHg 98%
    02:00 +14°C° 0.3 mm 1 mps 759 mmHg 98%
    03:00 +13°C° 0.1 mm 1 mps 759 mmHg 98%
    04:00 +13°C° 0.1 mm 1 mps 758 mmHg 98%
    05:00 +13°C° 0.1 mm 1 mps 758 mmHg 98%
    06:00 +13°C° 0 mm 1 mps 758 mmHg 97%
    07:00 +13°C° 0 mm 1 mps 758 mmHg 96%
    08:00 +13°C° 0 mm 1 mps 757 mmHg 95%
    09:00 +14°C° 0 mm 2 mps 757 mmHg 91%
    10:00 +15°C° 0 mm 2 mps 757 mmHg 87%
    11:00 +16°C° 0 mm 2 mps 757 mmHg 83%
    12:00 +17°C° 0.1 mm 3 mps 757 mmHg 78%
    13:00 +17°C° 0.1 mm 4 mps 757 mmHg 73%
    14:00 +17°C° 0.1 mm 5 mps 757 mmHg 69%
    15:00 +15°C° 0 mm 5 mps 757 mmHg 68%
    16:00 +13°C° 0 mm 5 mps 758 mmHg 68%
    17:00 +12°C° 0 mm 5 mps 758 mmHg 67%
    18:00 +9°C° 0 mm 5 mps 759 mmHg 69%
    19:00 +8°C° 0 mm 5 mps 760 mmHg 70%
    20:00 +7°C° 0 mm 4 mps 761 mmHg 71%
    21:00 +6°C° 0 mm 4 mps 761 mmHg 73%
    22:00 +4°C° 0 mm 4 mps 761 mmHg 74%
    23:00 +3°C° 0 mm 3 mps 761 mmHg 76%
    Show more